Wind_Speed
15 15 14 13 13 11 11 10 9 8 8 8 7 7 7 7 7 7 7 8 8 9 9 9 9 10 11 11 11 12 11 11 11 12 12 12 12 12 12 13 13 13 13 13
17 16 16 15 13 13 12 11 9 9 8 8 8 8 8 8 8 8 8 9 10 10 9 9 10 10 11 11 11 11 11 11 12 12 12 12 13 13 13 13 14 14 14 14
19 18 18 17 15 14 13 12 11 10 9 10 10 9 9 9 9 9 9 9 9 10 10 10 10 10 10 11 11 11 11 11 12 12 12 13 14 14 14 14 14 15 15 15
21 20 20 17 17 16 15 13 13 12 11 12 11 11 10 10 10 10 10 10 11 10 10 10 11 11 11 12 12 11 11 12 12 13 14 14 14 14 14 15 15 15 15 15
22 22 21 18 17 17 16 15 14 13 13 13 13 12 12 11 11 11 11 11 11 11 11 11 11 11 11 12 12 12 12 12 13 13 14 13 14 14 14 14 14 15 15 15
23 23 22 19 18 17 17 16 15 14 14 14 14 14 13 12 12 13 12 12 11 11 12 12 12 12 12 12 12 13 13 12 12 12 13 13 14 15 15 15 15 15 15 16
24 24 23 21 20 19 19 17 16 15 14 14 14 14 13 14 14 14 13 13 12 12 12 12 13 13 13 13 13 13 13 13 13 13 13 14 14 15 15 15 15 16 17 17
26 25 23 22 22 21 20 19 17 16 15 15 14 14 14 14 14 14 14 14 13 13 13 13 13 13 13 14 14 14 14 13 13 13 14 14 15 15 15 15 15 16 16 17
27 26 24 23 23 22 21 20 19 18 17 17 16 15 15 15 15 16 15 15 14 14 14 14 13 14 14 14 14 14 14 14 14 14 14 14 14 15 15 15 16 16 17 18
27 26 24 24 25 24 23 22 21 20 20 19 18 17 17 16 17 17 16 15 15 15 15 15 15 14 14 14 14 14 14 14 14 14 14 14 14 15 16 16 17 17 18 18
27 26 26 25 25 25 25 24 23 22 22 21 21 20 19 18 18 18 17 17 16 16 16 16 16 16 16 16 16 15 15 15 15 15 15 16 16 17 17 17 18 18 19 20
27 27 28 27 26 26 25 25 25 24 24 22 21 21 21 20 20 19 19 18 17 17 17 17 17 17 17 17 17 17 16 16 16 16 17 17 17 18 18 18 19 19 20 21
29 29 29 29 28 26 26 25 25 25 25 23 22 21 21 21 21 21 20 20 19 19 19 19 18 19 19 19 19 19 19 18 18 18 19 19 19 19 19 20 21 21 22 22
30 30 30 29 29 28 27 26 26 26 26 25 24 23 22 22 21 21 21 21 20 20 21 21 21 20 20 20 20 20 20 20 20 20 20 20 20 21 21 21 22 23 23 24
31 31 30 29 30 30 30 29 28 27 27 26 26 25 24 23 22 22 22 22 22 22 22 22 22 22 21 21 21 21 21 21 21 21 21 21 22 22 23 23 24 24 25 26
32 32 31 30 30 30 30 29 29 28 28 28 27 27 25 24 24 23 23 23 23 23 23 23 23 23 22 22 22 22 22 22 22 23 23 24 24 25 25 25 26 26 27 27
33 32 31 31 31 31 30 30 29 29 28 29 28 27 27 26 25 25 25 24 24 24 24 24 23 23 23 23 23 23 24 24 25 25 26 26 26 27 27 27 28 28 29 29
32 32 32 32 32 32 32 32 31 30 29 29 29 28 28 27 27 27 26 26 26 26 25 25 25 25 25 25 25 25 26 26 27 28 27 27 27 28 28 28 29 29 30 30
32 32 32 32 32 32 32 32 31 30 29 29 29 29 29 29 28 28 27 27 27 27 27 27 27 27 27 27 27 27 27 28 28 29 29 29 29 30 30 30 31 31 31 31
32 32 32 32 32 33 32 32 31 31 30 30 29 29 29 29 29 29 28 28 28 28 28 27 28 28 28 28 28 28 29 29 29 30 30 30 31 31 31 32 32 32 32 33
32 32 32 32 32 33 33 32 31 31 30 30 30 30 30 30 30 30 29 29 28 28 28 28 28 28 28 29 30 30 30 31 31 31 31 31 32 32 32 32 33 33 34 35
32 32 32 32 33 33 33 32 32 31 31 31 31 32 31 31 31 31 30 30 29 29 29 29 29 29 29 30 31 31 31 32 32 32 32 32 32 33 33 34 34 35 35 36
33 33 33 32 32 33 33 33 33 32 32 32 32 31 31 32 31 31 31 30 30 30 30 30 30 29 30 31 31 32 32 33 33 33 33 33 34 34 34 35 35 35 36 36
33 33 34 33 33 33 33 34 34 33 33 33 32 32 32 32 31 31 30 30 29 29 30 29 29 29 30 31 31 32 33 33 33 34 34 34 34 34 35 36 36 36 37 37
33 34 34 34 33 33 33 34 34 34 34 34 33 33 33 32 32 31 31 30 30 31 31 31 30 31 31 32 32 33 34 34 34 34 35 35 36 36 36 36 37 37 37 38
33 33 34 34 34 34 34 34 34 34 34 34 34 34 34 33 32 32 32 31 31 31 32 32 32 33 33 33 34 34 35 35 35 35 35 35 36 36 36 36 36 37 38 38
33 34 34 34 34 34 35 34 34 33 33 34 34 34 34 34 33 32 31 31 32 32 33 33 34 34 34 34 34 34 35 35 35 35 35 36 37 37 37 37 37 37 38 38
Wind_Direction
241 245 249 250 252 254 257 259 262 263 265 265 260 255 252 252 251 244 236 236 241 244 245 242 238 239 239 241 243 244 243 241 243 243 246 249 256 259 262 263 264 269 272 275
240 244 248 249 250 251 254 254 254 253 257 259 257 254 252 254 253 248 246 245 246 244 246 244 240 239 240 242 243 243 243 244 246 248 251 255 257 261 262 264 266 269 273 276
240 242 246 246 248 250 250 249 249 250 252 255 257 256 256 257 256 254 248 247 249 249 249 245 243 243 242 242 242 246 247 247 249 250 254 258 260 263 264 266 267 270 273 275
242 242 244 245 246 247 247 247 250 249 246 249 252 255 256 255 256 258 257 253 254 254 252 249 249 249 246 246 245 246 250 250 252 254 258 260 263 265 266 267 270 273 273 276
242 243 244 244 245 247 247 248 250 248 245 247 250 253 256 256 254 257 259 258 256 254 253 251 251 253 252 251 250 251 254 258 259 261 262 265 266 267 268 269 272 274 276 276
242 242 242 242 243 246 248 247 247 247 245 247 248 251 255 256 256 257 260 258 256 255 256 256 255 255 256 255 256 256 258 259 260 262 265 268 269 269 269 271 272 273 276 279
242 242 241 240 242 244 245 246 246 244 245 246 248 252 254 253 255 255 256 256 255 256 256 255 254 254 255 256 257 257 258 257 258 262 267 269 271 272 272 272 274 276 278 281
242 242 241 240 242 242 243 243 241 241 243 246 250 253 254 254 253 254 256 254 256 256 255 255 256 258 258 258 257 259 261 260 261 265 269 270 273 273 272 271 274 278 280 282
242 243 241 240 241 240 240 239 238 239 242 246 249 252 252 253 253 256 256 253 255 255 253 254 256 258 260 259 258 259 260 261 265 268 271 273 274 274 273 273 275 279 282 284
240 240 239 239 240 240 240 239 240 242 243 244 248 250 252 253 253 256 258 254 254 254 252 255 257 258 260 260 259 260 262 263 266 268 271 273 275 277 277 275 277 280 282 285
238 237 237 238 240 241 242 241 241 243 245 246 247 249 251 253 254 255 257 255 255 256 255 257 258 258 258 259 260 261 263 265 266 270 273 275 277 279 280 280 280 282 284 286
238 238 238 237 239 241 243 243 242 243 245 247 249 250 251 253 254 255 256 254 254 255 256 258 258 258 257 258 259 261 264 266 268 271 274 276 278 279 280 281 282 284 286 288
238 237 237 237 238 241 243 243 243 243 245 246 248 251 252 252 254 254 255 255 253 254 256 258 258 256 256 258 260 260 262 265 268 270 272 276 278 279 279 280 282 284 286 288
238 238 237 238 238 240 241 243 245 245 244 245 247 250 253 253 254 254 256 256 254 254 256 257 258 258 258 259 260 260 262 265 267 269 272 275 278 279 280 281 283 285 287 289
238 238 238 240 240 240 242 244 246 246 244 244 245 248 251 252 254 255 257 257 256 256 256 257 258 258 259 259 259 260 262 265 266 268 270 274 276 278 281 282 283 284 285 288
238 237 238 239 240 241 243 245 247 248 245 244 245 248 251 251 253 255 256 258 258 258 257 257 257 257 259 259 259 261 263 265 266 268 271 273 275 278 280 282 283 284 286 289
238 238 239 240 241 243 244 245 247 247 246 244 245 247 250 251 253 255 256 257 258 258 257 256 257 259 260 260 260 261 263 265 267 269 271 273 275 277 279 282 283 284 286 288
240 240 241 242 241 242 243 245 245 246 246 244 244 246 248 251 253 256 257 256 257 258 259 259 258 258 258 259 260 262 264 267 268 270 271 273 275 277 280 282 283 285 286 288
241 242 242 242 242 242 243 244 245 246 246 245 246 247 248 250 252 254 256 258 258 258 259 259 259 259 259 260 261 263 266 268 270 270 271 273 276 278 280 281 284 285 287 288
241 242 242 241 241 242 243 244 245 245 246 246 247 248 249 251 252 254 257 260 260 259 259 259 258 258 259 260 262 265 267 269 271 271 273 274 277 278 280 282 284 286 287 288
242 241 241 240 241 242 242 243 244 244 245 245 246 248 250 252 253 255 257 259 260 260 260 260 260 260 261 262 264 266 268 270 271 272 274 276 277 278 280 282 284 285 287 288
240 240 240 241 242 242 240 241 243 243 244 245 246 248 250 251 253 255 257 258 260 261 261 260 260 260 261 263 264 266 268 270 272 273 274 276 277 278 280 281 282 284 285 288
241 240 240 241 241 241 240 240 242 243 244 245 246 248 250 251 254 255 256 258 260 260 260 261 261 262 263 264 265 267 269 271 272 273 274 276 277 279 281 282 283 283 285 287
241 240 240 240 241 241 241 241 243 244 244 245 246 248 249 250 252 254 255 257 258 258 260 261 262 263 264 266 267 269 270 271 272 272 273 275 277 278 280 282 284 284 285 287
239 239 239 240 241 241 242 243 243 244 244 245 245 247 249 250 252 254 255 257 259 259 260 261 262 264 266 267 268 270 272 273 273 273 273 275 276 277 279 281 283 284 286 288
239 239 239 240 241 241 242 243 243 245 244 244 245 247 249 250 252 254 255 257 259 260 261 262 263 265 267 269 270 270 272 273 273 274 275 275 276 277 278 280 282 284 286 288
239 240 240 241 242 242 243 243 243 244 245 245 246 247 248 250 252 255 257 260 262 262 263 264 265 266 268 268 270 271 273 273 274 274 276 277 278 278 278 279 281 283 285 286
Height
5830 5831 5832 5833 5834 5834 5835 5836 5838 5838 5838 5838 5838 5838 5839 5839 5839 5839 5840 5840 5841 5842 5843 5843 5844 5845 5846 5847 5848 5849 5850 5851 5852 5853 5853 5854 5855 5855 5855 5855 5855 5855 5855 5855
5825 5826 5827 5828 5830 5831 5832 5833 5834 5835 5836 5835 5836 5836 5836 5837 5837 5837 5838 5839 5839 5840 5840 5841 5842 5843 5844 5845 5846 5847 5848 5848 5849 5850 5850 5851 5851 5852 5852 5852 5852 5852 5851 5851
5821 5822 5823 5825 5827 5827 5829 5830 5831 5832 5833 5832 5833 5833 5834 5834 5835 5835 5836 5836 5837 5837 5838 5838 5839 5840 5841 5842 5843 5844 5844 5845 5846 5847 5847 5848 5848 5848 5848 5848 5848 5848 5847 5847
5815 5817 5818 5823 5822 5823 5824 5826 5827 5828 5829 5829 5830 5830 5831 5831 5832 5832 5833 5834 5834 5834 5835 5836 5837 5837 5838 5839 5840 5841 5841 5842 5842 5843 5843 5844 5844 5844 5844 5844 5844 5844 5843 5843
5809 5811 5813 5816 5817 5818 5820 5822 5823 5824 5825 5825 5826 5827 5828 5828 5829 5829 5830 5830 5831 5832 5832 5833 5834 5834 5835 5836 5837 5837 5838 5839 5839 5839 5840 5840 5840 5840 5840 5840 5840 5839 5839 5838
5803 5805 5807 5812 5812 5813 5816 5817 5818 5819 5820 5821 5822 5824 5825 5825 5825 5826 5826 5827 5828 5828 5829 5830 5830 5831 5832 5832 5833 5834 5834 5835 5835 5835 5836 5836 5836 5836 5836 5836 5835 5835 5834 5834
5796 5798 5801 5805 5806 5809 5812 5814 5814 5815 5816 5817 5818 5820 5821 5821 5821 5822 5822 5823 5824 5824 5825 5826 5827 5827 5828 5829 5830 5830 5830 5831 5831 5831 5832 5832 5832 5831 5831 5831 5831 5830 5830 5829
5789 5791 5797 5799 5800 5803 5806 5807 5809 5810 5811 5812 5814 5815 5816 5816 5817 5818 5818 5819 5820 5821 5821 5822 5823 5824 5824 5825 5825 5826 5826 5827 5827 5827 5827 5827 5827 5827 5827 5826 5826 5825 5825 5824
5784 5788 5790 5791 5793 5796 5798 5800 5802 5804 5806 5807 5809 5810 5811 5812 5813 5813 5814 5815 5816 5816 5817 5818 5819 5819 5820 5820 5821 5822 5822 5823 5823 5823 5823 5823 5823 5822 5822 5822 5821 5820 5820 5819
5776 5779 5782 5784 5786 5789 5791 5794 5796 5798 5800 5802 5803 5805 5806 5807 5808 5809 5810 5810 5811 5812 5813 5814 5814 5815 5816 5816 5817 5817 5818 5818 5819 5819 5819 5819 5818 5818 5817 5817 5816 5815 5815 5813
5768 5771 5774 5777 5779 5782 5784 5788 5790 5792 5794 5795 5797 5799 5800 5801 5803 5804 5805 5805 5806 5807 5808 5808 5809 5810 5811 5812 5812 5813 5813 5814 5814 5814 5814 5814 5814 5813 5812 5812 5811 5810 5809 5808
5760 5764 5767 5770 5772 5775 5777 5780 5783 5785 5787 5789 5791 5793 5794 5796 5797 5798 5799 5800 5801 5802 5803 5803 5804 5805 5806 5806 5807 5808 5808 5809 5809 5809 5809 5809 5808 5808 5807 5806 5805 5805 5803 5802
5752 5755 5758 5761 5765 5768 5770 5773 5775 5778 5780 5782 5784 5786 5788 5789 5791 5792 5793 5794 5795 5796 5797 5798 5799 5799 5800 5801 5801 5802 5803 5803 5803 5803 5803 5803 5802 5802 5801 5800 5799 5798 5797 5796
5742 5746 5749 5753 5757 5760 5762 5765 5767 5770 5773 5775 5777 5779 5781 5783 5784 5785 5787 5788 5789 5790 5791 5792 5793 5793 5794 5795 5795 5796 5796 5797 5797 5797 5797 5797 5796 5795 5795 5794 5793 5791 5790 5789
5734 5737 5741 5745 5748 5751 5754 5757 5760 5762 5765 5767 5770 5772 5774 5776 5777 5779 5780 5781 5783 5783 5784 5785 5786 5787 5787 5788 5789 5789 5790 5790 5790 5790 5790 5790 5789 5789 5788 5787 5786 5784 5783 5781
5725 5728 5732 5736 5739 5742 5745 5748 5751 5754 5757 5759 5762 5764 5766 5768 5770 5771 5773 5774 5775 5776 5777 5778 5779 5780 5780 5781 5782 5782 5783 5783 5783 5783 5783 5783 5782 5781 5781 5780 5778 5777 5775 5773
5715 5719 5723 5726 5730 5734 5737 5740 5742 5745 5748 5751 5753 5756 5758 5760 5762 5763 5765 5766 5768 5769 5770 5770 5771 5772 5773 5774 5774 5775 5775 5776 5776 5776 5775 5775 5774 5774 5773 5771 5770 5768 5767 5765
5707 5710 5714 5718 5721 5724 5727 5730 5733 5736 5739 5742 5744 5747 5749 5752 5754 5755 5757 5758 5759 5761 5762 5763 5763 5764 5765 5766 5766 5767 5767 5767 5767 5767 5767 5767 5766 5765 5764 5763 5761 5760 5758 5756
5697 5701 5704 5708 5711 5714 5717 5720 5723 5726 5729 5732 5735 5738 5741 5743 5745 5746 5748 5749 5751 5752 5753 5754 5755 5756 5756 5757 5758 5758 5758 5759 5759 5758 5758 5758 5757 5756 5755 5754 5752 5751 5748 5746
5688 5691 5694 5697 5701 5704 5708 5711 5714 5717 5720 5723 5726 5728 5731 5733 5735 5737 5739 5740 5742 5743 5744 5745 5746 5747 5747 5748 5748 5749 5749 5749 5749 5749 5748 5748 5747 5746 5745 5744 5742 5741 5739 5737
5678 5682 5685 5688 5691 5694 5698 5701 5704 5708 5711 5713 5716 5719 5721 5724 5726 5727 5729 5731 5732 5733 5734 5735 5736 5737 5737 5738 5738 5739 5739 5739 5739 5739 5738 5738 5737 5736 5735 5733 5732 5730 5728 5726
5669 5672 5675 5679 5682 5685 5688 5691 5695 5698 5701 5704 5707 5709 5711 5714 5716 5718 5719 5721 5722 5723 5724 5725 5726 5727 5727 5728 5728 5728 5728 5728 5728 5728 5727 5727 5726 5725 5724 5723 5721 5719 5717 5715
5659 5662 5666 5669 5672 5675 5678 5681 5685 5688 5691 5694 5697 5699 5702 5704 5706 5708 5710 5711 5712 5713 5714 5715 5716 5716 5717 5717 5717 5718 5718 5717 5717 5717 5716 5716 5715 5714 5713 5711 5710 5708 5706 5704
5649 5652 5656 5659 5662 5666 5669 5672 5675 5678 5681 5684 5687 5689 5692 5694 5696 5698 5699 5701 5702 5703 5704 5705 5705 5706 5706 5706 5706 5706 5706 5706 5706 5705 5705 5704 5703 5702 5701 5700 5698 5696 5694 5692
5639 5643 5646 5649 5653 5656 5659 5662 5665 5668 5671 5674 5677 5679 5681 5684 5686 5687 5689 5690 5691 5692 5693 5694 5695 5695 5695 5696 5696 5695 5695 5695 5694 5694 5693 5693 5692 5691 5689 5688 5686 5685 5683 5680
5630 5633 5636 5640 5643 5646 5649 5652 5655 5658 5661 5664 5666 5669 5671 5673 5675 5677 5678 5679 5681 5681 5683 5683 5684 5684 5684 5684 5684 5684 5684 5683 5682 5682 5681 5680 5679 5678 5677 5676 5674 5673 5671 5668
5620 5623 5626 5630 5633 5636 5639 5642 5645 5648 5651 5653 5656 5658 5660 5662 5664 5666 5667 5668 5669 5670 5671 5672 5672 5672 5672 5672 5672 5672 5672 5671 5670 5670 5669 5668 5667 5666 5665 5663 5662 5660 5658 5656